GW3945 Weather Reports


Display with metric or nautical units.
time (UTC)temp
F
wind
direction
speed
MPH
gust
MPH
rain 1hr
in
rain 24hr
in
rain mn
in
humidity
%
barometer
mb
20260901022323 77 228 0.0 0.0 0.00 0.00 0.00 93 1016.9
20260901021818 77 226 0.0 0.0 0.00 0.00 0.00 93 1016.8
20260901021313 78 226 0.0 0.0 0.00 0.00 0.00 92 1016.6
20260901020808 78 226 0.0 0.0 0.00 0.00 0.00 91 1016.8
20260901020303 78 226 0.0 0.0 0.00 0.00 0.00 91 1016.6
20260901015758 79 227 0.0 0.0 0.00 0.00 0.00 91 1016.5
20260901015254 79 227 0.0 0.0 0.00 0.00 0.00 91 1016.8
20260901014753 79 227 0.0 0.0 0.00 0.00 0.00 91 1016.6
20260901014249 79 227 0.0 0.0 0.00 0.00 0.00 90 1016.3
20260901013745 79 227 0.0 0.0 0.00 0.00 0.00 90 1016.5
20260901013240 80 227 0.0 0.0 0.00 0.00 0.00 90 1016.5
20260901012735 80 227 0.0 0.0 0.00 0.00 0.00 90 1016.3
20260901012235 80 227 0.0 0.0 0.00 0.00 0.00 90 1016.3
20260901011731 80 227 0.0 0.0 0.00 0.00 0.00 90 1016.1
20260901011226 80 227 0.0 0.0 0.00 0.00 0.00 90 1016.2
20260901010720 80 226 0.0 0.0 0.00 0.00 0.00 88 1016.1
20260901010215 81 226 0.0 0.0 0.00 0.00 0.00 87 1016.0
20260901005714 81 226 0.0 0.0 0.00 0.00 0.00 87 1015.9
20260901005209 81 226 0.0 0.0 0.00 0.00 0.00 87 1016.2
20260901004709 82 226 0.0 0.0 0.00 0.00 0.00 86 1016.2
20260901004203 82 226 0.0 0.0 0.00 0.00 0.00 86 1016.2
20260901003657 82 225 0.0 0.0 0.00 0.00 0.00 86 1015.9
20260901003157 82 224 0.0 0.0 0.00 0.00 0.00 82 1016.0
20260901002651 83 224 0.0 0.0 0.00 0.00 0.00 81 1016.1
20260901002146 84 224 0.0 0.0 0.00 0.00 0.00 82 1016.1
20260901001642 84 224 0.0 0.0 0.00 0.00 0.00 80 1015.9
20260901001136 84 224 0.0 0.0 0.00 0.00 0.00 79 1016.0
20260901000632 85 224 0.0 0.0 0.00 0.00 0.00 79 1016.1
20260901000127 85 224 0.0 0.0 0.00 0.00 0.00 77 1016.1
20260831235621 85 224 0.0 0.0 0.00 0.00 0.00 77 1016.2
20260831235116 86 224 0.0 0.0 0.00 0.00 0.00 75 1016.2
20260831234610 86 224 0.0 0.0 0.00 0.00 0.00 71 1016.2
20260831234106 86 224 0.0 0.0 0.00 0.00 0.00 71 1016.0
20260831233601 87 224 0.0 0.0 0.00 0.00 0.00 70 1016.4
20260831233056 87 226 0.0 0.0 0.00 0.00 0.00 69 1016.4
20260831232551 87 225 0.0 0.0 0.00 0.00 0.00 70 1016.5
20260831232047 88 206 0.0 0.0 0.00 0.00 0.00 67 1016.4
20260831231543 88 206 0.0 0.0 0.00 0.00 0.00 67 1016.3
20260831231039 89 206 0.0 0.0 0.00 0.00 0.00 65 1016.4
20260831230534 89 206 0.0 0.0 0.00 0.00 0.00 63 1016.3
20260831230034 89 206 0.0 0.0 0.00 0.00 0.00 63 1016.5
20260831225529 89 207 0.0 0.0 0.00 0.00 0.00 64 1016.5
20260831225024 89 207 0.0 0.0 0.00 0.00 0.00 61 1016.3
20260831224519 89 206 0.0 0.0 0.00 0.00 0.00 59 1016.4
20260831224014 89 206 0.0 0.0 0.00 0.00 0.00 59 1016.6
20260831223509 90 206 0.0 0.0 0.00 0.00 0.00 57 1016.7
20260831223006 91 206 0.0 0.0 0.00 0.00 0.00 57 1016.6
20260831222502 92 206 0.0 0.0 0.00 0.00 0.00 55 1016.9
20260831222001 92 207 0.0 0.0 0.00 0.00 0.00 56 1016.7
20260831221457 93 206 0.0 0.0 0.00 0.00 0.00 54 1016.8
20260831220952 93 207 0.0 0.0 0.00 0.00 0.00 55 1016.7
20260831220447 92 206 0.0 0.0 0.00 0.00 0.00 58 1016.7
20260831215942 92 206 0.0 0.0 0.00 0.00 0.00 55 1016.7
20260831215438 91 206 0.0 0.0 0.00 0.00 0.00 55 1016.8
20260831214934 91 207 0.0 0.0 0.00 0.00 0.00 55 1016.7
20260831214431 93 217 0.0 0.0 0.00 0.00 0.00 56 1016.9
20260831213927 93 222 0.0 0.0 0.00 0.00 0.00 54 1016.9
20260831213424 94 218 0.0 0.0 0.00 0.00 0.00 53 1016.8
20260831212923 93 218 0.0 0.0 0.00 0.00 0.00 53 1017.1
20260831212420 93 217 0.0 0.0 0.00 0.00 0.00 53 1017.0
20260831211919 92 217 0.0 0.0 0.00 0.00 0.00 55 1017.1
20260831211414 92 217 0.0 0.0 0.00 0.00 0.00 54 1016.9
20260831210908 91 218 0.0 0.0 0.00 0.00 0.00 56 1017.0
20260831210403 90 218 0.0 0.0 0.00 0.00 0.00 58 1017.1
20260831205859 89 217 0.0 0.0 0.00 0.00 0.00 59 1017.4
20260831205354 89 219 0.0 0.0 0.00 0.00 0.00 60 1017.1
20260831204849 89 225 0.0 0.0 0.00 0.00 0.00 58 1017.1
20260831204348 89 243 0.0 0.0 0.00 0.00 0.00 60 1017.3
20260831203848 89 217 0.0 0.0 0.00 0.00 0.00 60 1017.3
20260831203342 89 215 0.0 0.0 0.00 0.00 0.00 61 1017.3
20260831202840 90 226 0.0 0.0 0.00 0.00 0.00 60 1017.4
20260831202331 90 217 0.0 0.0 0.00 0.00 0.00 60 1017.2
20260831201830 91 224 0.0 0.0 0.00 0.00 0.00 58 1017.4
20260831201329 91 277 0.0 1.0 0.00 0.00 0.00 57 1017.4
20260831200825 91 216 0.0 0.0 0.00 0.00 0.00 59 1017.4
20260831200320 90 216 0.0 0.0 0.00 0.00 0.00 60 1017.5
20260831195815 90 219 0.0 0.0 0.00 0.00 0.00 60 1017.7
20260831195311 90 215 0.0 0.0 0.00 0.00 0.00 58 1017.8
20260831194806 90 213 0.0 0.0 0.00 0.00 0.00 60 1017.9
20260831194301 90 225 0.0 0.0 0.00 0.00 0.00 60 1017.8
20260831193754 89 236 0.0 0.0 0.00 0.00 0.00 59 1017.9
20260831193250 89 211 0.0 0.0 0.00 0.00 0.00 62 1018.0
20260831192745 90 207 0.0 0.0 0.00 0.00 0.00 61 1018.0
20260831192240 89 205 0.0 0.0 0.00 0.00 0.00 62 1017.9
20260831191736 89 204 0.0 0.0 0.00 0.00 0.00 61 1018.0
20260831191232 89 211 0.0 0.0 0.00 0.00 0.00 61 1018.1
20260831190727 89 196 0.0 0.0 0.00 0.00 0.00 61 1018.0
20260831190227 90 204 0.0 0.0 0.00 0.00 0.00 60 1017.9
20260831185721 90 218 0.0 0.0 0.00 0.00 0.00 62 1018.0
20260831185217 89 230 0.0 0.0 0.00 0.00 0.00 63 1018.0
20260831184716 89 202 0.0 0.0 0.00 0.00 0.00 63 1018.4
20260831184212 89 220 0.0 0.0 0.00 0.00 0.00 61 1018.2
20260831183711 89 223 0.0 0.0 0.00 0.00 0.00 62 1018.2
20260831183206 89 216 0.0 0.0 0.00 0.00 0.00 63 1018.3
20260831182705 89 215 0.0 0.0 0.00 0.00 0.00 64 1018.4
20260831182201 89 223 0.0 0.0 0.00 0.00 0.00 63 1018.7
20260831181655 89 212 0.0 0.0 0.00 0.00 0.00 64 1018.6
20260831181149 88 209 0.0 0.0 0.00 0.00 0.00 69 1018.5
20260831180645 89 221 0.0 0.0 0.00 0.00 0.00 64 1018.6
20260831180140 89 264 0.0 0.0 0.00 0.00 0.00 63 1018.8
20260831175634 89 226 0.0 0.0 0.00 0.00 0.00 64 1018.8
20260831175131 89 202 0.0 0.0 0.00 0.00 0.00 64 1018.8
20260831174631 88 213 0.0 0.0 0.00 0.00 0.00 63 1019.1
20260831174126 88 232 1.0 2.0 0.00 0.00 0.00 61 1019.2
20260831173624 88 226 0.0 0.0 0.00 0.00 0.00 64 1019.2
20260831173120 88 221 0.0 0.0 0.00 0.00 0.00 64 1019.0
20260831172615 89 262 0.0 0.0 0.00 0.00 0.00 66 1019.0
20260831172114 88 222 0.0 1.0 0.00 0.00 0.00 66 1019.2
20260831171610 88 214 0.0 0.0 0.00 0.00 0.00 67 1019.2
20260831171107 88 237 0.0 0.0 0.00 0.00 0.00 66 1019.5
20260831170603 88 235 1.0 2.0 0.00 0.00 0.00 65 1019.4
20260831170100 88 207 0.0 0.0 0.00 0.00 0.00 65 1019.3
20260831165555 88 230 0.0 0.0 0.00 0.00 0.00 64 1019.3
20260831165052 87 220 0.0 0.0 0.00 0.00 0.00 66 1019.4
20260831164547 87 207 0.0 0.0 0.00 0.00 0.00 70 1019.5
20260831164043 87 195 0.0 1.0 0.00 0.00 0.00 68 1019.7
20260831163537 87 218 0.0 0.0 0.00 0.00 0.00 70 1019.6
20260831163033 86 207 0.0 0.0 0.00 0.00 0.00 71 1019.6
20260831162532 86 222 0.0 1.0 0.00 0.00 0.00 70 1019.8
20260831162030 86 213 0.0 0.0 0.00 0.00 0.00 73 1019.6
20260831161527 86 216 0.0 0.0 0.00 0.00 0.00 73 1020.0
20260831161023 86 231 0.0 0.0 0.00 0.00 0.00 73 1019.6
20260831160522 86 238 1.0 2.0 0.00 0.00 0.00 73 1019.6
20260831160018 86 201 0.0 0.0 0.00 0.00 0.00 74 1019.5
20260831155512 86 220 0.0 0.0 0.00 0.00 0.00 73 1019.6
20260831155007 85 200 0.0 0.0 0.00 0.00 0.00 73 1019.8
20260831154504 85 223 0.0 0.0 0.00 0.00 0.00 75 1019.8
20260831154003 85 217 0.0 0.0 0.00 0.00 0.00 74 1019.7
20260831153457 85 222 0.0 0.0 0.00 0.00 0.00 76 1019.9
20260831152954 85 235 0.0 0.0 0.00 0.00 0.00 76 1019.7
20260831152449 84 212 0.0 0.0 0.00 0.00 0.00 79 1019.7
20260831151944 84 210 0.0 0.0 0.00 0.00 0.00 80 1019.7
20260831151443 84 223 0.0 0.0 0.00 0.00 0.00 78 1019.7
20260831150938 84 246 0.0 0.0 0.00 0.00 0.00 79 1019.7
20260831150434 84 205 0.0 0.0 0.00 0.00 0.00 79 1019.6
20260831145933 83 219 0.0 0.0 0.00 0.00 0.00 80 1019.6
20260831145430 83 209 0.0 0.0 0.00 0.00 0.00 82 1019.5
20260831144925 83 212 0.0 0.0 0.00 0.00 0.00 82 1019.6
20260831144421 83 212 0.0 0.0 0.00 0.00 0.00 82 1019.5
20260831143916 81 209 0.0 0.0 0.00 0.00 0.00 83 1019.4
20260831143411 81 207 0.0 0.0 0.00 0.00 0.00 84 1019.3
20260831142907 81 209 0.0 0.0 0.00 0.00 0.00 86 1019.2
20260831142402 80 206 0.0 0.0 0.00 0.00 0.00 86 1019.4
20260831141856 80 204 0.0 0.0 0.00 0.00 0.00 86 1019.4
20260831141350 79 205 0.0 0.0 0.00 0.00 0.00 87 1019.4
20260831140845 79 211 0.0 0.0 0.00 0.00 0.00 89 1019.1
20260831140340 78 209 0.0 0.0 0.00 0.00 0.00 89 1019.3
20260831135838 78 207 0.0 0.0 0.00 0.00 0.00 89 1019.4
20260831135333 78 205 0.0 0.0 0.00 0.00 0.00 89 1019.3
20260831134829 77 199 0.0 0.0 0.00 0.00 0.00 90 1019.2
20260831134326 77 223 0.0 0.0 0.00 0.00 0.00 91 1019.2
20260831133825 77 223 0.0 0.0 0.00 0.00 0.00 92 1019.0
20260831133324 76 223 0.0 0.0 0.00 0.00 0.00 92 1019.3
20260831132819 76 223 0.0 0.0 0.00 0.00 0.00 92 1019.0
20260831132314 75 223 0.0 0.0 0.00 0.00 0.00 93 1019.2
20260831131809 75 223 0.0 0.0 0.00 0.00 0.00 94 1019.1
20260831131305 74 223 0.0 0.0 0.00 0.00 0.00 95 1018.9
20260831130759 74 224 0.0 0.0 0.00 0.00 0.00 96 1018.8
20260831130255 73 224 0.0 0.0 0.00 0.00 0.00 96 1018.9
20260831125754 73 224 0.0 0.0 0.00 0.00 0.00 97 1018.8
20260831125249 73 225 0.0 0.0 0.00 0.00 0.00 97 1018.9
20260831124744 73 225 0.0 0.0 0.00 0.00 0.00 97 1018.8
20260831124241 72 225 0.0 0.0 0.00 0.00 0.00 98 1018.9
20260831123740 71 225 0.0 0.0 0.00 0.00 0.00 97 1018.8
20260831123239 72 225 0.0 0.0 0.00 0.00 0.00 98 1018.8
20260831122733 72 226 0.0 0.0 0.00 0.00 0.00 98 1018.5
20260831122229 71 226 0.0 0.0 0.00 0.00 0.00 98 1018.7
20260831121728 71 226 0.0 0.0 0.00 0.00 0.00 98 1018.4
20260831121225 71 226 0.0 0.0 0.00 0.00 0.00 98 1018.7
20260831120721 71 226 0.0 0.0 0.00 0.00 0.00 98 1018.5
20260831120215 71 226 0.0 0.0 0.00 0.00 0.00 98 1018.6
20260831115711 71 226 0.0 0.0 0.00 0.00 0.00 98 1018.6
20260831115207 71 226 0.0 0.0 0.00 0.00 0.00 99 1018.7
20260831114706 71 226 0.0 0.0 0.00 0.00 0.00 99 1018.6
20260831114205 70 226 0.0 0.0 0.00 0.00 0.00 98 1018.5
20260831113701 70 226 0.0 0.0 0.00 0.00 0.00 98 1018.5
20260831113155 71 226 0.0 0.0 0.00 0.00 0.00 98 1018.5
20260831112654 71 226 0.0 0.0 0.00 0.00 0.00 98 1018.3
20260831112150 71 226 0.0 0.0 0.00 0.00 0.00 98 1018.4
20260831111646 71 226 0.0 0.0 0.00 0.00 0.00 98 1018.2
20260831111141 70 226 0.0 0.0 0.00 0.00 0.00 98 1018.3
20260831110637 71 226 0.0 0.0 0.00 0.00 0.00 98 1018.2
20260831110132 71 226 0.0 0.0 0.00 0.00 0.00 98 1018.2
20260831105631 71 226 0.0 0.0 0.00 0.00 0.00 98 1018.1
20260831105126 71 226 0.0 0.0 0.00 0.00 0.00 98 1018.1
20260831104621 71 226 0.0 0.0 0.00 0.00 0.00 98 1018.2
20260831104118 71 228 0.0 0.0 0.00 0.00 0.00 98 1018.1
20260831103613 71 226 0.0 0.0 0.00 0.00 0.00 98 1018.1
20260831103108 71 226 0.0 0.0 0.00 0.00 0.00 97 1017.9
20260831102603 71 227 0.0 0.0 0.00 0.00 0.00 97 1017.9
20260831102058 71 227 0.0 0.0 0.00 0.00 0.00 97 1017.9
20260831101557 72 227 0.0 0.0 0.00 0.00 0.00 97 1018.1
20260831101054 72 227 0.0 0.0 0.00 0.00 0.00 98 1017.7
20260831100549 71 227 0.0 0.0 0.00 0.00 0.00 97 1017.8
20260831100045 72 227 0.0 0.0 0.00 0.00 0.00 98 1017.5
20260831095543 71 227 0.0 0.0 0.00 0.00 0.00 97 1017.7
20260831095038 71 227 0.0 0.0 0.00 0.00 0.00 97 1017.8
20260831094534 72 227 0.0 0.0 0.00 0.00 0.00 98 1017.5
20260831094030 72 227 0.0 0.0 0.00 0.00 0.00 97 1017.7
20260831093525 71 227 0.0 0.0 0.00 0.00 0.00 98 1017.4
20260831093021 71 227 0.0 0.0 0.00 0.00 0.00 97 1017.4
20260831092517 71 227 0.0 0.0 0.00 0.00 0.00 97 1017.4
20260831092013 71 227 0.0 0.0 0.00 0.00 0.00 97 1017.4
20260831091507 72 227 0.0 0.0 0.00 0.00 0.00 97 1017.8
20260831091002 71 229 0.0 0.0 0.00 0.00 0.00 97 1017.2
20260831090458 71 229 0.0 0.0 0.00 0.00 0.00 97 1017.2
20260831085954 72 229 0.0 0.0 0.00 0.00 0.00 97 1017.3
20260831085449 72 229 0.0 0.0 0.00 0.00 0.00 97 1017.2
20260831084949 72 229 0.0 0.0 0.00 0.00 0.00 97 1017.2
20260831084445 72 229 0.0 0.0 0.00 0.00 0.00 97 1017.1
20260831083942 72 229 0.0 0.0 0.00 0.00 0.00 97 1017.1
20260831083436 72 228 0.0 0.0 0.00 0.00 0.00 97 1017.0
20260831082935 72 229 0.0 0.0 0.00 0.00 0.00 97 1017.0
20260831082429 72 228 0.0 0.0 0.00 0.00 0.00 97 1016.9
20260831081925 72 228 0.0 0.0 0.00 0.00 0.00 97 1017.0
20260831081421 72 229 0.0 0.0 0.00 0.00 0.00 97 1016.9
20260831080917 72 228 0.0 0.0 0.00 0.00 0.00 97 1017.0
20260831080411 72 228 0.0 0.0 0.00 0.00 0.00 97 1016.9
20260831075907 72 228 0.0 0.0 0.00 0.00 0.00 97 1017.0
20260831075402 73 229 0.0 0.0 0.00 0.00 0.00 97 1016.8
20260831074857 73 229 0.0 0.0 0.00 0.00 0.00 97 1016.9
20260831074356 73 230 0.0 0.0 0.00 0.00 0.00 97 1017.0
20260831073851 73 222 0.0 0.0 0.00 0.00 0.00 97 1016.9
20260831073351 73 222 0.0 0.0 0.00 0.00 0.00 97 1016.9
20260831072846 73 222 0.0 0.0 0.00 0.00 0.00 96 1017.1
20260831072341 73 222 0.0 0.0 0.00 0.00 0.00 96 1017.0
20260831071838 73 225 0.0 0.0 0.00 0.00 0.00 96 1017.0
20260831071336 73 223 0.0 0.0 0.00 0.00 0.00 96 1017.0
20260831070832 73 223 0.0 0.0 0.00 0.00 0.00 96 1017.3
20260831070330 73 223 0.0 0.0 0.00 0.00 0.00 96 1017.3
20260831065830 73 223 0.0 0.0 0.00 0.00 0.00 96 1017.0
20260831065328 74 223 0.0 0.0 0.00 0.00 0.00 95 1017.0
20260831064823 74 223 0.0 0.0 0.00 0.00 0.00 95 1017.2
20260831064319 74 223 0.0 0.0 0.00 0.00 0.00 95 1017.3
20260831063815 74 223 0.0 0.0 0.00 0.00 0.00 95 1017.2
20260831063309 74 239 0.0 0.0 0.00 0.00 0.00 95 1017.2
20260831062809 74 226 0.0 0.0 0.00 0.00 0.00 95 1017.2
20260831062305 74 226 0.0 0.0 0.00 0.00 0.00 95 1017.3
20260831061802 74 226 0.0 0.0 0.00 0.00 0.00 95 1017.1
20260831061257 74 226 0.0 0.0 0.00 0.00 0.00 95 1017.1
20260831060754 74 226 0.0 0.0 0.00 0.00 0.00 95 1017.2
20260831060253 74 226 0.0 0.0 0.00 0.00 0.00 94 1017.3
20260831055752 75 226 0.0 0.0 0.00 0.00 0.00 94 1017.3
20260831055247 75 226 0.0 0.0 0.00 0.00 0.00 94 1017.2
20260831054743 74 226 0.0 0.0 0.00 0.00 0.00 94 1017.3
20260831054238 75 225 0.0 0.0 0.00 0.00 0.00 94 1017.2
20260831053736 75 225 0.0 0.0 0.00 0.00 0.00 94 1017.5
20260831053235 75 226 0.0 0.0 0.00 0.00 0.00 93 1017.4
20260831052729 75 238 0.0 0.0 0.00 0.00 0.00 93 1017.2
20260831052223 75 233 0.0 0.0 0.00 0.00 0.00 94 1017.3
20260831051721 75 231 0.0 0.0 0.00 0.00 0.00 94 1017.2
20260831051220 75 231 0.0 0.0 0.00 0.00 0.00 94 1017.2
20260831050715 75 228 0.0 0.0 0.00 0.00 0.00 93 1017.5
20260831050214 75 229 0.0 0.0 0.00 0.00 0.00 93 1017.2
20260831045709 75 226 0.0 0.0 0.00 0.00 0.00 93 1017.2
20260831045204 75 226 0.0 0.0 0.00 0.00 0.00 92 1017.5
20260831044658 75 225 0.0 0.0 0.00 0.00 0.00 93 1017.2
20260831044153 75 227 0.0 0.0 0.00 0.00 0.00 92 1017.2
20260831043649 75 226 0.0 0.0 0.00 0.00 0.00 93 1017.2
20260831043144 75 224 0.0 0.0 0.00 0.00 0.00 93 1017.1
20260831042643 75 224 0.0 0.0 0.00 0.00 0.00 93 1017.4
20260831042138 76 224 0.0 0.0 0.00 0.00 0.00 93 1017.4
20260831041633 76 224 0.0 0.0 0.00 0.00 0.00 93 1017.3
20260831041132 76 225 0.0 0.0 0.00 0.00 0.00 92 1017.3
20260831040622 76 225 0.0 0.0 0.00 0.00 0.00 92 1017.5
20260831040121 76 225 0.0 0.0 0.00 0.00 0.00 92 1017.2
20260831035620 76 225 0.0 0.0 0.00 0.00 0.00 91 1017.3
20260831035114 76 224 0.0 0.0 0.00 0.00 0.00 91 1017.3
20260831034614 76 225 0.0 0.0 0.00 0.00 0.00 90 1017.5
20260831034109 77 225 0.0 0.0 0.00 0.00 0.00 90 1017.7
20260831033605 77 225 0.0 0.0 0.00 0.00 0.00 90 1017.7
20260831033100 77 226 0.0 0.0 0.00 0.00 0.00 89 1017.5
20260831032559 77 228 0.0 0.0 0.00 0.00 0.00 88 1017.4
20260831032055 77 233 0.0 0.0 0.00 0.00 0.00 88 1017.4
20260831031554 77 227 0.0 0.0 0.00 0.00 0.00 88 1017.7
20260831031054 77 227 0.0 0.0 0.00 0.00 0.00 88 1017.3
20260831030553 78 227 0.0 0.0 0.00 0.00 0.00 88 1017.4
20260831030052 77 227 0.0 0.0 0.00 0.00 0.00 87 1017.3
20260831025551 78 227 0.0 0.0 0.00 0.00 0.00 88 1017.3
20260831025046 78 227 0.0 0.0 0.00 0.00 0.00 87 1017.2
20260831024542 79 227 0.0 0.0 0.00 0.00 0.00 85 1017.0
20260831024041 79 227 0.0 0.0 0.00 0.00 0.00 84 1017.3
20260831023539 80 227 0.0 0.0 0.00 0.00 0.00 84 1017.0
20260831023034 80 227 0.0 0.0 0.00 0.00 0.00 80 1017.2
20260831022533 80 227 0.0 0.0 0.00 0.00 0.00 79 1017.0